Back to catalog

QIANFAN-10

AliveCommunicationsPO
NORAD 60388·PAYLOAD·🇨🇳 China

Launched Aug 6, 2024 from Taiyuan Satellite Launch Center

Loading…

Next Passes (next 24 hours)

TLE

FreshSource: Space-Track

Epoch: Sep 14, 2026, 13:45 UTC

1 60388U 24140K   26257.57308133  .00000013  00000-0  94229-6 0  9994
2 60388  88.9680 270.0901 0016844  97.6013 262.7052 13.51021694104702

Track QIANFAN-10 in real time with AllMySat

Download on the App Store